Regional Weather Roundup
Issued by NWS Columbia, SC

Home | Current Version | Previous Version | Text Only | Print | Product List | Glossary On
Versions: 1 2 3 4 5 6 7 8 9 10 11 12 13 14 15 16 17 18 19 20 21 22 23 24 25 26 27
000
ASUS42 KCAE 230610
RWRCAE
REGIONAL WEATHER ROUNDUP
NATIONAL WEATHER SERVICE COLUMBIA SC
100 AM EST THU FEB 23 2017

NOTE: "FAIR" INDICATES FEW OR NO CLOUDS BELOW 12,000 FEET WITH NO
SIGNIFICANT WEATHER AND/OR OBSTRUCTIONS TO VISIBILITY.

NOT ALL STATIONS ARE QUALITY CONTROLLED BY THE NATIONAL
WEATHER SERVICE. USE DATA WITH CAUTION...ESPECIALLY
DEWPOINT OBSERVATIONS.

SCZ001>056-GAZ040-063>065-077-230700-
...UPSTATE SOUTH CAROLINA...

CITY           SKY/WX    TMP DP  RH WIND       PRES   REMARKS
ANDERSON       CLOUDY    58  53  84 NE7       29.91S
6HR MIN TEMP:  58; 6HR MAX TEMP:  62;

LIBERTY        PTCLDY    56  53  91 E3        29.91F
6HR MIN TEMP:  55; 6HR MAX TEMP:  60;

SPARTANBURG    PTCLDY    55  52  88 N3        29.92S
CLEMSON        PTCLDY    58  53  84 CALM      29.92F
6HR MIN TEMP:  58; 6HR MAX TEMP:  63;

GREENVILLE     CLOUDY    59  53  80 NE9       29.92F
6HR MIN TEMP:  57; 6HR MAX TEMP:  61;

GREENWOOD      PTCLDY    55  52  89 N3        29.91F
6HR MIN TEMP:  55; 6HR MAX TEMP:  63;

GREER          CLOUDY    57  53  86 NE5       29.91F
6HR MIN TEMP:  56; 6HR MAX TEMP:  59;

ROCK HILL      CLOUDY    57  54  89 CALM      29.91F
6HR MIN TEMP:  56; 6HR MAX TEMP:  63;

CHESTER        CLOUDY    59  54  82 CALM      29.92F
LAURENS        MOCLDY    54  52  94 CALM      29.91S


...CENTRAL SOUTH CAROLINA...

CITY           SKY/WX    TMP DP  RH WIND       PRES   REMARKS
COLUMBIA APT   CLOUDY    64  56  75 NE3       29.89R
6HR MIN TEMP:  63; 6HR MAX TEMP:  70;

COLUMBIA OWENS CLOUDY    62  55  77 CALM      29.90S
6HR MIN TEMP:  62; 6HR MAX TEMP:  70;

MCENTIRE ANGB  CLOUDY    57  55  91 CALM      29.89S
6HR MIN TEMP:  57; 6HR MAX TEMP:  65;

ORANGEBURG     MOCLDY    57  55  93 NE5       29.87F
6HR MIN TEMP:  57; 6HR MAX TEMP:  67;

SUMTER SHAW    CLOUDY    59  54  83 N6        29.87S
6HR MIN TEMP:  57; 6HR MAX TEMP:  67;

AIKEN          FAIR      55  54  94 NE3       29.92R
BARNWELL       FAIR      63  61  94 NE5       29.87R
MANNING        FAIR      54  46  76 MISG      29.89R
CAMDEN         FAIR      59  54  82 CALM      29.91S
LANCASTER      MOCLDY    59  59 100 CALM      29.92S
WINNSBORO      CLOUDY    59  55  88 CALM      29.90S


...EASTERN AND COASTAL SOUTH CAROLINA...

CITY           SKY/WX    TMP DP  RH WIND       PRES   REMARKS
MYRTLE BEACH   CLOUDY    62  55  77 E8        29.90S
6HR MIN TEMP:  61; 6HR MAX TEMP:  63;

N MYRTLE BCH   CLOUDY    58  55  90 NE6       29.89F
6HR MIN TEMP:  58; 6HR MAX TEMP:  64;

CONWAY         FAIR      54  52  94 CALM      29.90S
MARION         FAIR      57  52  82 E3        29.90S
HARTSVILLE     FAIR      55  52  88 NE3       29.91R
FLORENCE       PTCLDY    57  54  89 E5        29.90S
6HR MIN TEMP:  57; 6HR MAX TEMP:  66;

DARLINGTON     CLOUDY    56  54  93 N5        29.92R
6HR MIN TEMP:  56; 6HR MAX TEMP:  66;

CHARLESTON APT MOCLDY    61  57  87 NE9       29.85F
6HR MIN TEMP:  61; 6HR MAX TEMP:  66; 6HR PCP: TRACE;

MOUNT PLEASANT FAIR      59  57  94 CALM      29.86F
WALTERBORO     PTCLDY    59  57  94 NE5       29.86F
BEAUFORT       PTCLDY    62  60  93 NE7       29.84S
6HR MIN TEMP:  62; 6HR MAX TEMP:  67;



...EASTERN GEORGIA...

CITY           SKY/WX    TMP DP  RH WIND       PRES   REMARKS
AUGUSTA BUSH F CLOUDY    59  56  89 CALM      29.87R
6HR MIN TEMP:  57; 6HR MAX TEMP:  70;

AUGUSTA DANIEL MOCLDY    64  56  75 N6        29.89R
6HR MIN TEMP:  64; 6HR MAX TEMP:  70;

THOMSON        CLOUDY    60  60 100 CALM      29.92F
6HR MIN TEMP:  60; 6HR MAX TEMP:  65;

WASHINGTON     FAIR      61  61 100 CALM      29.89S
CLAXTON        FAIR     N/A N/A N/A NE5       29.82F
SYLVANIA       CLOUDY   N/A N/A N/A E6        29.84F
STATESBORO     CLOUDY    63  63 100 E3        29.82F
6HR MIN TEMP:  63; 6HR MAX TEMP:  65;

SAVANNAH       CLOUDY    62  59  90 NE8       29.82F
6HR MIN TEMP:  62; 6HR MAX TEMP:  67;



...SOUTHERN NORTH CAROLINA...

CITY           SKY/WX    TMP DP  RH WIND       PRES   REMARKS
CHARLOTTE      CLOUDY    57  52  83 CALM      29.92F
6HR MIN TEMP:  57; 6HR MAX TEMP:  62;

MONROE         MOCLDY    59  53  80 CALM      29.91F
6HR MIN TEMP:  58; 6HR MAX TEMP:  65;

WADESBORO      CLOUDY    55  51  87 CALM      29.92S
6HR MIN TEMP:  55; 6HR MAX TEMP:  65;

ROCKINGHAM     CLOUDY    58  54  84 CALM      29.92S
6HR MIN TEMP:  57; 6HR MAX TEMP:  68;

RUTHERFORDTON  CLOUDY    53  53 100 CALM      29.94S
6HR MIN TEMP:  53; 6HR MAX TEMP:  56;

ASHEVILLE      CLOUDY    50  48  93 CALM      29.94F FOG
6HR MIN TEMP:  50; 6HR MAX TEMP:  55;


$$




USA.gov is the U.S. government's official web portal to all federal, state and local government web resources and services.